RYR228 EGSS-EPSY

Flight info

Callsign RYR228
Flight time 1h 52m
Altitude 37000
Route CLN P44 RATLO M197 REDFA DCT TACHA DCT GARLU DCT ALUKA L29 GRUDA T720 IBINO
Aircraft B738/M-SDE2E3FGHIRWXY/LB1

Departure

Time 2026-05-05 14:34
Airport London Stansted Airport (EGSS)

Arrival

Time 2026-05-05 16:26
Airport Olsztyn-Mazury Airport (EPSY)
Time Latitude Longitude Altitude Speed Heading
2026-05-05 14:06 51.89365 0.25734 351 ft 0 kts 42°
2026-05-05 14:25 51.89351 0.25713 351 ft 2 kts 42°
2026-05-05 14:26 51.89335 0.25692 360 ft 4 kts
2026-05-05 14:26 51.89316 0.25704 361 ft 3 kts 313°
2026-05-05 14:26 51.89304 0.25724 359 ft 0 kts 313°
2026-05-05 14:28 51.89305 0.25723 359 ft 2 kts 313°
2026-05-05 14:28 51.89354 0.25638 354 ft 17 kts 309°
2026-05-05 14:28 51.89307 0.25475 355 ft 19 kts 223°
2026-05-05 14:28 51.89214 0.25335 354 ft 18 kts 223°
2026-05-05 14:29 51.89117 0.25189 358 ft 20 kts 223°
2026-05-05 14:29 51.89009 0.25027 353 ft 22 kts 223°
2026-05-05 14:29 51.88897 0.24856 357 ft 24 kts 223°
2026-05-05 14:29 51.88780 0.24681 354 ft 23 kts 223°
2026-05-05 14:30 51.88662 0.24505 347 ft 23 kts 223°
2026-05-05 14:30 51.88550 0.24338 347 ft 22 kts 223°
2026-05-05 14:30 51.88440 0.24173 351 ft 22 kts 223°
2026-05-05 14:30 51.88335 0.24015 349 ft 21 kts 223°
2026-05-05 14:31 51.88228 0.23855 352 ft 20 kts 223°
2026-05-05 14:31 51.88122 0.23694 339 ft 21 kts 223°
2026-05-05 14:31 51.88020 0.23542 340 ft 21 kts 223°
2026-05-05 14:31 51.87916 0.23385 339 ft 20 kts 223°
2026-05-05 14:32 51.87814 0.23233 338 ft 20 kts 223°
2026-05-05 14:32 51.87732 0.23089 337 ft 16 kts 256°
2026-05-05 14:32 51.87780 0.22952 338 ft 15 kts 313°
2026-05-05 14:32 51.87855 0.22820 335 ft 17 kts 313°
2026-05-05 14:33 51.87948 0.22692 331 ft 18 kts 357°
2026-05-05 14:33 51.88073 0.22840 332 ft 42 kts 43°
2026-05-05 14:33 51.88471 0.23436 336 ft 111 kts 43°
2026-05-05 14:33 51.89181 0.24504 394 ft 162 kts 44°
2026-05-05 14:34 51.89999 0.25763 1070 ft 164 kts 43°
2026-05-05 14:34 51.90814 0.27060 1766 ft 172 kts 47°
2026-05-05 14:34 51.91521 0.28824 2097 ft 202 kts 69°
2026-05-05 14:34 51.91722 0.31135 2702 ft 211 kts 96°
2026-05-05 14:35 51.91248 0.33403 3403 ft 216 kts 116°
2026-05-05 14:35 51.90561 0.35555 4131 ft 224 kts 115°
2026-05-05 14:35 51.89820 0.37966 4408 ft 253 kts 114°
2026-05-05 14:35 51.89033 0.40584 5046 ft 264 kts 114°
2026-05-05 14:36 51.88223 0.43294 5871 ft 268 kts 114°
2026-05-05 14:36 51.87413 0.46032 6706 ft 271 kts 114°
2026-05-05 14:36 51.86595 0.48815 7511 ft 275 kts 114°
2026-05-05 14:36 51.85767 0.51635 8298 ft 280 kts 114°
2026-05-05 14:37 51.84925 0.54501 9067 ft 284 kts 114°
2026-05-05 14:37 51.84072 0.57403 9826 ft 289 kts 114°
2026-05-05 14:37 51.83281 0.60438 10401 ft 300 kts 105°
2026-05-05 14:37 51.82928 0.63886 10612 ft 322 kts 91°
2026-05-05 14:38 51.83019 0.67564 11169 ft 332 kts 85°
2026-05-05 14:38 51.83194 0.71308 11903 ft 336 kts 84°
2026-05-05 14:38 51.83371 0.75098 12660 ft 340 kts 85°
2026-05-05 14:38 51.83529 0.78935 13426 ft 344 kts 86°
2026-05-05 14:39 51.83677 0.82813 14188 ft 348 kts 86°
2026-05-05 14:39 51.83819 0.86743 14954 ft 351 kts 86°
2026-05-05 14:39 51.83960 0.90702 15720 ft 355 kts 86°
2026-05-05 14:39 51.84102 0.94707 16443 ft 359 kts 86°
2026-05-05 14:40 51.84245 0.98762 17130 ft 364 kts 86°
2026-05-05 14:40 51.84390 1.02880 17792 ft 369 kts 87°
2026-05-05 14:40 51.84535 1.07041 18488 ft 372 kts 87°
2026-05-05 14:40 51.84679 1.11236 19194 ft 375 kts 87°
2026-05-05 14:41 51.84952 1.15440 19837 ft 380 kts 76°
2026-05-05 14:41 51.85911 1.19454 20436 ft 385 kts 66°
2026-05-05 14:41 51.87022 1.23421 21057 ft 389 kts 66°
2026-05-05 14:41 51.88148 1.27426 21636 ft 393 kts 66°
2026-05-05 14:42 51.89276 1.31486 22173 ft 398 kts 67°
2026-05-05 14:42 51.90402 1.35603 22712 ft 402 kts 67°
2026-05-05 14:42 51.91526 1.39762 23232 ft 406 kts 67°
2026-05-05 14:42 51.92658 1.43979 23739 ft 410 kts 67°
2026-05-05 14:43 51.93797 1.48240 24213 ft 414 kts 68°
2026-05-05 14:43 51.94906 1.52405 24676 ft 418 kts 68°
2026-05-05 14:43 51.96046 1.56689 25168 ft 421 kts 68°
2026-05-05 14:43 51.97207 1.61054 25658 ft 423 kts 68°
2026-05-05 14:44 51.98375 1.65457 26104 ft 427 kts 68°
2026-05-05 14:44 51.99465 1.69954 26525 ft 429 kts 74°
2026-05-05 14:44 52.00266 1.74625 26981 ft 430 kts 78°
2026-05-05 14:44 52.00982 1.79354 27397 ft 433 kts 79°
2026-05-05 14:45 52.01678 1.84119 27788 ft 436 kts 79°
2026-05-05 14:45 52.02385 1.88923 28194 ft 438 kts 79°
2026-05-05 14:45 52.03109 1.93747 28602 ft 441 kts 79°
2026-05-05 14:45 52.03845 1.98580 28987 ft 443 kts 79°
2026-05-05 14:46 52.04594 2.03458 29346 ft 446 kts 79°
2026-05-05 14:46 52.05348 2.08352 29694 ft 448 kts 79°
2026-05-05 14:46 52.06107 2.13280 30044 ft 450 kts 79°
2026-05-05 14:46 52.06867 2.18230 30373 ft 452 kts 79°
2026-05-05 14:47 52.07627 2.23207 30665 ft 455 kts 79°
2026-05-05 14:47 52.08391 2.28216 30925 ft 459 kts 79°
2026-05-05 14:47 52.09156 2.33260 31248 ft 460 kts 79°
2026-05-05 14:47 52.09921 2.38305 31683 ft 458 kts 79°
2026-05-05 14:48 52.10681 2.43333 32080 ft 458 kts 79°
2026-05-05 14:48 52.11437 2.48360 32405 ft 459 kts 79°
2026-05-05 14:48 52.12285 2.53382 32691 ft 461 kts 76°
2026-05-05 14:48 52.13225 2.58377 33023 ft 462 kts 75°
2026-05-05 14:49 52.14198 2.63353 33379 ft 462 kts 75°
2026-05-05 14:49 52.15161 2.68268 33724 ft 461 kts 75°
2026-05-05 14:49 52.16139 2.73317 34050 ft 461 kts 75°
2026-05-05 14:49 52.17090 2.78297 34333 ft 462 kts 76°
2026-05-05 14:50 52.18036 2.83308 34596 ft 463 kts 75°
2026-05-05 14:50 52.18963 2.88257 34920 ft 462 kts 75°
2026-05-05 14:50 52.19897 2.93265 35266 ft 461 kts 75°
2026-05-05 14:50 52.20826 2.98257 35546 ft 461 kts 75°
2026-05-05 14:51 52.21757 3.03272 35805 ft 462 kts 75°
2026-05-05 14:51 52.22686 3.08288 36073 ft 462 kts 75°
2026-05-05 14:51 52.23612 3.13298 36372 ft 461 kts 75°
2026-05-05 14:51 52.24537 3.18308 36616 ft 462 kts 75°
2026-05-05 14:52 52.25458 3.23333 36833 ft 462 kts 76°
2026-05-05 14:52 52.26205 3.28435 36970 ft 463 kts 81°
2026-05-05 14:52 52.27309 3.38804 36959 ft 461 kts 83°
2026-05-05 14:53 52.28300 3.49022 36952 ft 451 kts 83°
2026-05-05 14:53 52.29310 3.59127 36968 ft 450 kts 83°
2026-05-05 14:54 52.30343 3.69207 36966 ft 450 kts 83°
2026-05-05 14:54 52.31381 3.79290 36955 ft 450 kts 83°
2026-05-05 14:55 52.32412 3.89402 36945 ft 451 kts 83°
2026-05-05 14:55 52.33434 3.99525 36946 ft 452 kts 83°
2026-05-05 14:56 52.34449 4.09689 36947 ft 453 kts 83°
2026-05-05 14:56 52.35460 4.19881 36940 ft 455 kts 83°
2026-05-05 14:57 52.36459 4.30033 36935 ft 456 kts 83°
2026-05-05 14:57 52.37459 4.40290 36934 ft 457 kts 83°
2026-05-05 14:58 52.38449 4.50561 36928 ft 457 kts 83°
2026-05-05 14:58 52.39434 4.60865 36929 ft 458 kts 83°
2026-05-05 14:59 52.40407 4.71163 36918 ft 458 kts 83°
2026-05-05 14:59 52.41372 4.81470 36916 ft 458 kts 84°
2026-05-05 15:00 52.42174 4.90097 36909 ft 457 kts 84°
2026-05-05 15:00 52.43274 5.02057 36920 ft 456 kts 84°
2026-05-05 15:01 52.44209 5.12321 36918 ft 456 kts 84°
2026-05-05 15:01 52.45133 5.22593 36917 ft 455 kts 84°
2026-05-05 15:02 52.46050 5.32868 36921 ft 455 kts 84°
2026-05-05 15:02 52.46956 5.43132 36916 ft 455 kts 84°
2026-05-05 15:03 52.47854 5.53411 36917 ft 455 kts 84°
2026-05-05 15:03 52.48744 5.63703 36927 ft 456 kts 84°
2026-05-05 15:04 52.49626 5.74010 36914 ft 456 kts 84°
2026-05-05 15:04 52.50498 5.84324 36918 ft 457 kts 85°
2026-05-05 15:05 52.51794 5.99839 36917 ft 457 kts 85°
2026-05-05 15:06 52.52648 6.10192 36918 ft 458 kts 85°
2026-05-05 15:06 52.53494 6.20573 36919 ft 458 kts 85°
2026-05-05 15:07 52.54331 6.30956 36932 ft 459 kts 85°
2026-05-05 15:07 52.55020 6.39598 36927 ft 459 kts 85°
2026-05-05 15:08 52.55843 6.50010 36929 ft 459 kts 85°
2026-05-05 15:08 52.56655 6.60417 36918 ft 459 kts 85°
2026-05-05 15:09 52.57457 6.70829 36914 ft 459 kts 85°
2026-05-05 15:09 52.58251 6.81253 36925 ft 459 kts 85°
2026-05-05 15:10 52.59037 6.91682 36906 ft 460 kts 85°
2026-05-05 15:10 52.59813 7.02113 36915 ft 460 kts 85°
2026-05-05 15:11 52.60575 7.12497 36923 ft 460 kts 85°
2026-05-05 15:11 52.61333 7.22949 36916 ft 460 kts 86°
2026-05-05 15:12 52.62085 7.33413 36908 ft 461 kts 86°
2026-05-05 15:12 52.62827 7.43893 36913 ft 461 kts 86°
2026-05-05 15:13 52.63560 7.54375 36908 ft 461 kts 86°
2026-05-05 15:13 52.64283 7.64856 36912 ft 461 kts 86°
2026-05-05 15:14 52.64995 7.75336 36910 ft 461 kts 86°
2026-05-05 15:14 52.65698 7.85795 36911 ft 460 kts 87°
2026-05-05 15:15 52.66394 7.96285 36914 ft 461 kts 87°
2026-05-05 15:15 52.67081 8.06776 36903 ft 461 kts 87°
2026-05-05 15:16 52.67757 8.17267 36909 ft 460 kts 87°
2026-05-05 15:16 52.68423 8.27764 36911 ft 461 kts 87°
2026-05-05 15:17 52.69081 8.38280 36912 ft 461 kts 87°
2026-05-05 15:17 52.69731 8.48804 36903 ft 463 kts 87°
2026-05-05 15:18 52.70380 8.59497 36925 ft 475 kts 87°
2026-05-05 15:18 52.71032 8.70399 36904 ft 480 kts 87°
2026-05-05 15:19 52.71681 8.81377 36912 ft 482 kts 87°
2026-05-05 15:19 52.72314 8.92234 36897 ft 473 kts 87°
2026-05-05 15:20 52.72935 9.03083 36913 ft 473 kts 87°
2026-05-05 15:20 52.73537 9.13834 36909 ft 475 kts 87°
2026-05-05 15:21 52.74136 9.24700 36909 ft 476 kts 87°
2026-05-05 15:21 52.74727 9.35597 36903 ft 477 kts 87°
2026-05-05 15:22 52.75312 9.46534 36898 ft 479 kts 88°
2026-05-05 15:22 52.75889 9.57498 36897 ft 480 kts 88°
2026-05-05 15:23 52.76455 9.68462 36892 ft 479 kts 88°
2026-05-05 15:23 52.77008 9.79420 36896 ft 479 kts 88°
2026-05-05 15:24 52.77552 9.90371 36895 ft 478 kts 88°
2026-05-05 15:24 52.78085 10.01313 36894 ft 477 kts 88°
2026-05-05 15:25 52.78608 10.12237 36893 ft 477 kts 88°
2026-05-05 15:25 52.79119 10.23165 36907 ft 477 kts 88°
2026-05-05 15:26 52.79621 10.34085 36912 ft 476 kts 88°
2026-05-05 15:26 52.80113 10.45006 36908 ft 477 kts 88°
2026-05-05 15:27 52.80591 10.55860 36901 ft 477 kts 88°
2026-05-05 15:27 52.81066 10.66859 36910 ft 477 kts 88°
2026-05-05 15:28 52.81528 10.77804 36913 ft 478 kts 88°
2026-05-05 15:28 52.81981 10.88779 36892 ft 479 kts 88°
2026-05-05 15:29 52.82422 10.99696 36902 ft 479 kts 88°
2026-05-05 15:29 52.82859 11.10697 36894 ft 480 kts 88°
2026-05-05 15:30 52.83260 11.21734 36893 ft 481 kts 89°
2026-05-05 15:30 52.83631 11.32788 36888 ft 482 kts 89°
2026-05-05 15:31 52.83991 11.43848 36890 ft 482 kts 89°
2026-05-05 15:31 52.84346 11.54930 36881 ft 483 kts 89°
2026-05-05 15:32 52.84694 11.66022 36880 ft 483 kts 89°
2026-05-05 15:32 52.85031 11.77111 36877 ft 483 kts 89°
2026-05-05 15:33 52.85356 11.88201 36880 ft 482 kts 89°
2026-05-05 15:33 52.85671 11.99271 36881 ft 482 kts 89°
2026-05-05 15:34 52.85975 12.10350 36877 ft 482 kts 89°
2026-05-05 15:34 52.86273 12.21429 36876 ft 481 kts 90°
2026-05-05 15:35 52.86557 12.32493 36880 ft 481 kts 90°
2026-05-05 15:35 52.86829 12.43550 36882 ft 481 kts 90°
2026-05-05 15:36 52.87092 12.54616 36877 ft 481 kts 90°
2026-05-05 15:36 52.87345 12.65657 36868 ft 481 kts 90°
2026-05-05 15:37 52.87588 12.76740 36870 ft 481 kts 90°
2026-05-05 15:37 52.87821 12.87795 36871 ft 480 kts 90°
2026-05-05 15:38 52.88043 12.98849 36870 ft 480 kts 90°
2026-05-05 15:38 52.88254 13.09899 36868 ft 481 kts 90°
2026-05-05 15:39 52.88454 13.20882 36874 ft 481 kts 90°
2026-05-05 15:39 52.88646 13.31953 36862 ft 481 kts 90°
2026-05-05 15:40 52.88829 13.43018 36861 ft 481 kts 90°
2026-05-05 15:40 52.89000 13.54080 36864 ft 481 kts 90°
2026-05-05 15:41 52.89160 13.65153 36865 ft 481 kts 91°
2026-05-05 15:41 52.89309 13.76223 36871 ft 481 kts 91°
2026-05-05 15:42 52.89449 13.87295 36870 ft 481 kts 91°
2026-05-05 15:42 52.89579 13.98365 36870 ft 481 kts 91°
2026-05-05 15:43 52.89700 14.09437 36871 ft 481 kts 91°
2026-05-05 15:43 52.89809 14.20497 36869 ft 480 kts 91°
2026-05-05 15:44 52.90061 14.31540 36870 ft 481 kts 83°
2026-05-05 15:44 52.91608 14.42318 36881 ft 481 kts 75°
2026-05-05 15:45 52.93395 14.53011 36880 ft 481 kts 75°
2026-05-05 15:45 52.95136 14.63714 36879 ft 481 kts 76°
2026-05-05 15:46 52.96826 14.74437 36880 ft 480 kts 76°
2026-05-05 15:46 52.98494 14.85168 36883 ft 480 kts 76°
2026-05-05 15:47 53.00154 14.95922 36878 ft 480 kts 76°
2026-05-05 15:47 53.01805 15.06673 36881 ft 481 kts 76°
2026-05-05 15:48 53.03448 15.17433 36881 ft 481 kts 76°
2026-05-05 15:48 53.05082 15.28207 36881 ft 481 kts 76°
2026-05-05 15:49 53.06698 15.38943 36879 ft 481 kts 77°
2026-05-05 15:49 53.08294 15.49606 36860 ft 470 kts 77°
2026-05-05 15:50 53.09853 15.60100 36866 ft 466 kts 77°
2026-05-05 15:50 53.11397 15.70557 36872 ft 465 kts 77°
2026-05-05 15:51 53.12931 15.81005 36874 ft 464 kts 77°
2026-05-05 15:51 53.14449 15.91447 36874 ft 464 kts 77°
2026-05-05 15:52 53.15963 16.01919 36873 ft 465 kts 77°
2026-05-05 15:52 53.17470 16.12404 36875 ft 466 kts 77°
2026-05-05 15:53 53.18970 16.22912 36871 ft 467 kts 77°
2026-05-05 15:53 53.20465 16.33461 36870 ft 467 kts 77°
2026-05-05 15:54 53.21952 16.44022 36873 ft 468 kts 78°
2026-05-05 15:54 53.23429 16.54581 36871 ft 467 kts 78°
2026-05-05 15:55 53.24650 16.63371 36872 ft 467 kts 78°
2026-05-05 15:55 53.26117 16.73981 36362 ft 470 kts 78°
2026-05-05 15:55 53.26845 16.79267 36022 ft 464 kts 78°
2026-05-05 15:56 53.27565 16.84505 35635 ft 461 kts 78°
2026-05-05 15:56 53.28276 16.89704 35243 ft 458 kts 78°
2026-05-05 15:56 53.28978 16.94884 34858 ft 455 kts 78°
2026-05-05 15:56 53.29670 17.00028 34479 ft 452 kts 78°
2026-05-05 15:57 53.30353 17.05142 34102 ft 449 kts 78°
2026-05-05 15:57 53.31029 17.10220 33724 ft 447 kts 78°
2026-05-05 15:57 53.31700 17.15273 33348 ft 444 kts 78°
2026-05-05 15:57 53.32367 17.20316 32965 ft 442 kts 78°
2026-05-05 15:58 53.33026 17.25317 32594 ft 440 kts 79°
2026-05-05 15:58 53.33681 17.30292 32232 ft 437 kts 79°
2026-05-05 15:58 53.34331 17.35253 31862 ft 435 kts 79°
2026-05-05 15:58 53.34974 17.40174 31495 ft 432 kts 79°
2026-05-05 15:59 53.35613 17.45076 31130 ft 430 kts 79°
2026-05-05 15:59 53.36246 17.49951 30778 ft 428 kts 79°
2026-05-05 15:59 53.36872 17.54795 30422 ft 425 kts 79°
2026-05-05 15:59 53.37495 17.59622 30065 ft 423 kts 79°
2026-05-05 16:00 53.38112 17.64426 29712 ft 420 kts 80°
2026-05-05 16:00 53.38722 17.69195 29355 ft 418 kts 80°
2026-05-05 16:00 53.39327 17.73939 28989 ft 415 kts 80°
2026-05-05 16:00 53.39927 17.78654 28621 ft 413 kts 80°
2026-05-05 16:01 53.40521 17.83344 28252 ft 410 kts 80°
2026-05-05 16:01 53.41110 17.88009 27886 ft 408 kts 80°
2026-05-05 16:01 53.41696 17.92649 27520 ft 406 kts 81°
2026-05-05 16:01 53.42267 17.97201 27164 ft 404 kts 81°
2026-05-05 16:02 53.42842 18.01803 26801 ft 401 kts 81°
2026-05-05 16:02 53.43410 18.06369 26444 ft 399 kts 81°
2026-05-05 16:02 53.43973 18.10904 26087 ft 397 kts 81°
2026-05-05 16:02 53.44533 18.15427 25730 ft 395 kts 81°
2026-05-05 16:03 53.45087 18.19915 25370 ft 392 kts 81°
2026-05-05 16:03 53.45637 18.24394 25018 ft 390 kts 81°
2026-05-05 16:03 53.46183 18.28843 24665 ft 388 kts 81°
2026-05-05 16:03 53.46724 18.33268 24308 ft 386 kts 81°
2026-05-05 16:04 53.47259 18.37661 23959 ft 383 kts 81°
2026-05-05 16:04 53.47790 18.42038 23613 ft 381 kts 81°
2026-05-05 16:04 53.48315 18.46387 23262 ft 380 kts 81°
2026-05-05 16:04 53.48838 18.50727 22916 ft 378 kts 81°
2026-05-05 16:05 53.49356 18.55037 22571 ft 376 kts 81°
2026-05-05 16:05 53.49870 18.59321 22223 ft 374 kts 81°
2026-05-05 16:05 53.50381 18.63600 21884 ft 372 kts 81°
2026-05-05 16:05 53.50887 18.67846 21543 ft 371 kts 81°
2026-05-05 16:06 53.51392 18.72086 21200 ft 370 kts 81°
2026-05-05 16:06 53.51893 18.76323 20857 ft 368 kts 81°
2026-05-05 16:06 53.52332 18.80554 20509 ft 366 kts 84°
2026-05-05 16:06 53.52646 18.84779 20169 ft 364 kts 86°
2026-05-05 16:07 53.52916 18.88996 19824 ft 362 kts 86°
2026-05-05 16:07 53.53179 18.93200 19481 ft 360 kts 86°
2026-05-05 16:07 53.53444 18.97371 19140 ft 359 kts 86°
2026-05-05 16:07 53.53713 19.01527 18804 ft 357 kts 86°
2026-05-05 16:08 53.53983 19.05673 18479 ft 356 kts 86°
2026-05-05 16:08 53.54256 19.09797 18138 ft 354 kts 85°
2026-05-05 16:08 53.54529 19.13895 17801 ft 353 kts 85°
2026-05-05 16:08 53.54800 19.17989 17466 ft 351 kts 85°
2026-05-05 16:09 53.55068 19.22058 17133 ft 349 kts 85°
2026-05-05 16:09 53.55334 19.26112 16806 ft 348 kts 85°
2026-05-05 16:09 53.55597 19.30139 16477 ft 346 kts 86°
2026-05-05 16:09 53.55858 19.34157 16146 ft 345 kts 86°
2026-05-05 16:10 53.56116 19.38159 15819 ft 343 kts 86°
2026-05-05 16:10 53.56368 19.42083 15492 ft 342 kts 86°
2026-05-05 16:10 53.56626 19.46111 15113 ft 342 kts 86°
2026-05-05 16:10 53.56877 19.50025 14790 ft 340 kts 86°
2026-05-05 16:11 53.57133 19.54018 14449 ft 338 kts 86°
2026-05-05 16:11 53.57874 19.65721 13488 ft 332 kts 86°
2026-05-05 16:12 53.58117 19.69576 13172 ft 331 kts 86°
2026-05-05 16:12 53.58595 19.77235 12540 ft 327 kts 86°
2026-05-05 16:13 53.58860 19.88499 11575 ft 315 kts 112°
2026-05-05 16:13 53.58028 19.91853 11305 ft 309 kts 119°
2026-05-05 16:13 53.57149 19.95079 10989 ft 307 kts 119°
2026-05-05 16:14 53.55320 20.01582 10362 ft 302 kts 121°
2026-05-05 16:14 53.53449 20.07827 9882 ft 296 kts 123°
2026-05-05 16:15 53.51630 20.13977 9333 ft 296 kts 121°
2026-05-05 16:15 53.49794 20.20226 8735 ft 299 kts 122°
2026-05-05 16:16 53.47944 20.26469 8129 ft 297 kts 121°
2026-05-05 16:16 53.46109 20.32653 7502 ft 295 kts 121°
2026-05-05 16:17 53.44296 20.38748 6902 ft 292 kts 121°
2026-05-05 16:17 53.43387 20.41785 6603 ft 291 kts 121°
2026-05-05 16:18 53.41604 20.47741 6100 ft 275 kts 121°
2026-05-05 16:18 53.40760 20.50557 5831 ft 266 kts 121°
2026-05-05 16:18 53.39140 20.55946 5316 ft 251 kts 120°
2026-05-05 16:19 53.38423 20.58327 5094 ft 246 kts 120°
2026-05-05 16:19 53.37656 20.60870 4864 ft 245 kts 120°
2026-05-05 16:19 53.36072 20.65953 4385 ft 245 kts 126°
2026-05-05 16:20 53.34173 20.70238 4089 ft 228 kts 127°
2026-05-05 16:20 53.32575 20.74464 3877 ft 202 kts 122°
2026-05-05 16:21 53.31278 20.78580 3715 ft 199 kts 116°
2026-05-05 16:22 53.32060 20.84576 3302 ft 199 kts 21°
2026-05-05 16:22 53.34557 20.86090 3037 ft 183 kts 19°
2026-05-05 16:23 53.36905 20.87438 2573 ft 177 kts 18°
2026-05-05 16:23 53.38064 20.88089 2339 ft 176 kts 18°
2026-05-05 16:23 53.40385 20.89389 1878 ft 173 kts 19°
2026-05-05 16:24 53.41481 20.90006 1707 ft 156 kts 18°
2026-05-05 16:24 53.42471 20.90561 1460 ft 142 kts 18°
2026-05-05 16:24 53.44302 20.91589 1088 ft 138 kts 18°
2026-05-05 16:25 53.45220 20.92103 907 ft 139 kts 18°
2026-05-05 16:25 53.47052 20.93137 508 ft 141 kts 18°
2026-05-05 16:25 53.47923 20.93625 455 ft 109 kts 18°
2026-05-05 16:26 53.48685 20.94046 466 ft 14 kts 17°
2026-05-05 16:26 53.48789 20.94250 466 ft 13 kts 102°
2026-05-05 16:27 53.48775 20.94376 466 ft 9 kts 54°
2026-05-05 16:27 53.48798 20.94411 466 ft 2 kts 84°
2026-05-05 16:27 53.48792 20.94439 466 ft 3 kts 107°
2026-05-05 16:27 53.48786 20.94467 466 ft 3 kts 109°
2026-05-05 16:28 53.48781 20.94494 466 ft 2 kts 109°
2026-05-05 16:28 53.48777 20.94514 464 ft 0 kts 108°